Weather History for New Haven, CT

Change the Weather History Date:

Thursday, March 7, 2013

  Actual Average Record
Temperature  
Mean Temperature 36 °F -  
Max Temperature 39 °F 41 °F 69 °F (1987)
Min Temperature 33 °F 27 °F 3 °F (2003)
Degree Days  
Heating Degree Days 29    
Moisture  
Dew Point 30 °F    
Average Humidity 79    
Maximum Humidity 93    
Minimum Humidity 65    
Precipitation  
Precipitation 0.09 in - - ()
Sea Level Pressure  
Sea Level Pressure 29.96 in    
Wind  
Wind Speed 22 mph (North)    
Max Wind Speed 29 mph    
Max Gust Speed 41 mph    
Visibility 6 miles    
Events Snow    
Averages and records for this station are not official NWS values.
T = Trace of Precipitation, MM = Missing Value Source: NWS Daily Summary

Daily Weather History Graph

Daily Weather History Graph

Search for Another Location

Airport:

Trip Planner

Search our weather history database for the weather conditions in past years. The results will help you decide how hot, cold, wet, or windy it might be!

Date:

Astronomy

Mar. 07, 2013 Rise Set
Actual Time 6:16 AM EST 5:49 PM EST
Civil Twilight 5:48 AM EST 6:17 PM EST
Nautical Twilight 5:16 AM EST 6:49 PM EST
Astronomical Twilight 4:44 AM EST 7:21 PM EST
Moon 3:15 AM EST (3/7) 1:32 PM EST (3/7)
Length of Visible Light 12h 28m
Length of Day
11h 33m
Waning Crescent, 20% of the Moon is Illuminated
Mar 7
Waning Crescent
Mar 11
New
Mar 19
First Quarter
Mar 27
Full
Apr 3
Last Quarter

Hourly Weather History & Observations

Time (EST) Temp. Windchill Dew Point Humidity Pressure Visibility Wind Dir Wind Speed Gust Speed Precip Events Conditions
12:53 AM 37.9 °F 26.1 °F 28.0 °F 68% 29.91 in 10.0 mi NNE 27.6 mph 35.7 mph N/A   Overcast
1:31 AM 35.6 °F 24.0 °F 30.2 °F 81% 29.91 in 4.0 mi North 23.0 mph 31.1 mph 0.00 in Snow Light Snow
1:53 AM 35.1 °F 23.0 °F 30.0 °F 82% 29.90 in 3.0 mi North 24.2 mph 33.4 mph 0.00 in Snow Light Snow
2:21 AM 35.6 °F 24.2 °F 30.2 °F 81% 29.89 in 4.0 mi North 21.9 mph 29.9 mph 0.00 in Snow Light Snow
2:53 AM 35.1 °F 23.0 °F 30.9 °F 85% 29.89 in 8.0 mi North 24.2 mph 33.4 mph 0.00 in   Overcast
3:06 AM 35.6 °F 23.2 °F 30.2 °F 81% 29.89 in 9.0 mi North 26.5 mph 34.5 mph N/A   Overcast
3:18 AM 35.6 °F 24.2 °F 30.2 °F 81% 29.90 in 10.0 mi NNE 21.9 mph 32.2 mph N/A   Overcast
3:35 AM 35.6 °F 23.4 °F 30.2 °F 81% 29.90 in 10.0 mi North 25.3 mph 34.5 mph N/A   Overcast
3:53 AM 35.1 °F 23.3 °F 30.0 °F 82% 29.91 in 7.0 mi North 23.0 mph 34.5 mph N/A   Overcast
4:01 AM 35.6 °F 24.0 °F 30.2 °F 81% 29.91 in 6.0 mi North 23.0 mph 29.9 mph 0.00 in Snow Light Snow
4:53 AM 35.1 °F 22.2 °F 28.9 °F 78% 29.91 in 7.0 mi NNE 27.6 mph 33.4 mph 0.00 in Snow Light Snow
5:53 AM 34.0 °F 20.8 °F 28.9 °F 82% 29.93 in 2.5 mi North 27.6 mph 36.8 mph 0.00 in Snow Light Snow
6:04 AM 33.8 °F 21.3 °F 28.4 °F 81% 29.93 in 1.5 mi North 24.2 mph 35.7 mph 0.00 in Snow Light Snow
6:23 AM 33.8 °F 21.0 °F 28.4 °F 81% 29.94 in 2.5 mi North 25.3 mph 34.5 mph 0.00 in Snow Light Snow
6:40 AM 33.8 °F 21.3 °F 28.4 °F 81% 29.94 in 2.5 mi North 24.2 mph 38.0 mph 0.00 in Snow Light Snow
6:53 AM 34.0 °F 20.5 °F 28.9 °F 82% 29.95 in 6.0 mi North 28.8 mph 39.1 mph 0.00 in   Haze
7:46 AM 33.8 °F 21.9 °F 28.4 °F 81% 29.95 in 2.5 mi North 21.9 mph 33.4 mph 0.00 in Snow Light Snow
7:53 AM 34.0 °F 21.5 °F 28.9 °F 82% 29.96 in 2.0 mi North 24.2 mph 32.2 mph 0.00 in Snow Light Snow
8:32 AM 33.8 °F 20.8 °F 28.4 °F 81% 29.95 in 1.8 mi North 26.5 mph 40.3 mph 0.00 in Snow Light Snow
8:44 AM 33.8 °F 21.0 °F 28.4 °F 81% 29.95 in 2.5 mi North 25.3 mph 39.1 mph 0.00 in Snow Light Snow
8:51 AM 33.8 °F 20.8 °F 28.4 °F 81% 29.95 in 3.0 mi North 26.5 mph 36.8 mph 0.00 in Snow Light Snow
8:53 AM 34.0 °F 21.5 °F 28.9 °F 82% 29.95 in 3.0 mi North 24.2 mph 36.8 mph 0.00 in Snow Light Snow
9:18 AM 35.6 °F 22.7 °F 28.4 °F 75% 29.94 in 10.0 mi North 28.8 mph 41.4 mph 0.00 in   Overcast
9:28 AM 35.6 °F 23.0 °F 28.4 °F 75% 29.94 in 10.0 mi North 27.6 mph 40.3 mph 0.00 in   Overcast
9:53 AM 36.0 °F 23.9 °F 28.9 °F 76% 29.94 in 10.0 mi North 25.3 mph 38.0 mph 0.00 in   Overcast
10:18 AM 37.4 °F 25.6 °F 28.4 °F 70% 29.95 in 10.0 mi North 26.5 mph 35.7 mph N/A   Overcast
10:53 AM 37.9 °F 28.2 °F 28.0 °F 68% 29.96 in 10.0 mi North 18.4 mph 35.7 mph N/A   Overcast
11:53 AM 37.9 °F 26.3 °F 28.0 °F 68% 29.97 in 10.0 mi North 26.5 mph 34.5 mph N/A   Overcast
12:53 PM 39.0 °F 28.3 °F 28.0 °F 65% 29.96 in 10.0 mi North 24.2 mph 32.2 mph N/A   Overcast
1:00 PM 39.2 °F 29.6 °F 28.4 °F 65% 29.97 in 10.0 mi North 19.6 mph 32.2 mph N/A   Overcast
1:08 PM 39.2 °F 29.6 °F 28.4 °F 65% 29.97 in 5.0 mi North 19.6 mph 31.1 mph 0.00 in   Unknown
1:53 PM 37.9 °F 27.6 °F 30.9 °F 76% 29.98 in 9.0 mi North 20.7 mph 29.9 mph 0.00 in Snow Light Snow
2:53 PM 37.9 °F 27.6 °F 30.0 °F 73% 29.98 in 9.0 mi North 20.7 mph 34.5 mph 0.00 in Snow Light Snow
3:53 PM 37.9 °F 28.5 °F 30.0 °F 73% 29.99 in 10.0 mi North 17.3 mph 27.6 mph 0.00 in   Overcast
4:53 PM 37.9 °F 30.0 °F 30.0 °F 73% 30.00 in 10.0 mi North 12.7 mph 27.6 mph N/A   Overcast
5:53 PM 37.0 °F 27.4 °F 30.0 °F 76% 30.02 in 5.0 mi North 17.3 mph 27.6 mph 0.00 in Snow Light Snow
6:53 PM 36.0 °F 27.1 °F 30.9 °F 82% 30.03 in 6.0 mi North 13.8 mph 19.6 mph 0.00 in Snow Light Snow
7:53 PM 36.0 °F 28.0 °F 32.0 °F 86% 30.02 in 4.0 mi NNW 11.5 mph 23.0 mph 0.01 in Snow Light Snow
8:53 PM 35.1 °F 29.3 °F 32.0 °F 89% 30.02 in 2.0 mi NNW 6.9 mph - 0.03 in Snow Light Snow
9:11 PM 33.8 °F 29.6 °F 32.0 °F 93% 30.01 in 1.5 mi NNW 4.6 mph - 0.01 in Snow Light Snow
9:53 PM 34.0 °F 27.2 °F 30.9 °F 89% 30.00 in 2.0 mi North 8.1 mph - 0.03 in Snow Light Snow
10:13 PM 35.6 °F 28.6 °F 30.2 °F 81% 30.00 in 2.5 mi NNW 9.2 mph 18.4 mph 0.01 in Snow Light Snow
10:25 PM 35.6 °F 28.6 °F 30.2 °F 81% 30.00 in 3.0 mi NNW 9.2 mph - 0.01 in Snow Light Snow
10:53 PM 35.1 °F 28.6 °F 30.9 °F 85% 29.99 in 4.0 mi NNW 8.1 mph - 0.01 in Snow Light Snow
10:55 PM 35.6 °F 28.6 °F 30.2 °F 81% 29.99 in 4.0 mi NNW 9.2 mph - 0.00 in Snow Light Snow
11:09 PM 35.6 °F 28.6 °F 30.2 °F 81% 30.00 in 4.0 mi North 9.2 mph - 0.00 in Snow Light Snow
11:15 PM 35.6 °F 28.6 °F 30.2 °F 81% 30.00 in 4.0 mi North 9.2 mph - 0.00 in Snow Light Snow
11:29 PM 35.6 °F 29.2 °F 30.2 °F 81% 30.00 in 2.5 mi NNW 8.1 mph - 0.00 in Snow Light Snow
11:37 PM 35.6 °F 28.0 °F 30.2 °F 81% 29.99 in 2.0 mi NNW 10.4 mph - 0.00 in Snow Light Snow
11:51 PM 35.6 °F 27.5 °F 30.2 °F 81% 29.99 in 3.0 mi NNW 11.5 mph 19.6 mph 0.01 in Snow Light Snow
11:53 PM 35.1 °F 26.9 °F 30.9 °F 85% 29.99 in 3.0 mi NNW 11.5 mph 19.6 mph 0.01 in Snow Light Snow